Year,Month,Day,Hour,Minute,Value (Times are PST for temperature in C)
2009,03,24,00,00,4.30
2009,03,24,00,01,4.30
2009,03,24,00,02,4.30
2009,03,24,00,03,4.30
2009,03,24,00,04,4.30
2009,03,24,00,05,4.20
2009,03,24,00,06,4.20
2009,03,24,00,07,4.20
2009,03,24,00,08,4.20
2009,03,24,00,09,4.20
2009,03,24,00,10,4.20
2009,03,24,00,11,4.20
2009,03,24,00,12,4.20
2009,03,24,00,13,4.30
2009,03,24,00,14,4.30
2009,03,24,00,15,4.30
2009,03,24,00,16,4.30
2009,03,24,13,02,7.50
2009,03,24,13,03,7.50
2009,03,24,13,04,7.50
2009,03,24,13,05,7.40
2009,03,24,13,06,7.40
2009,03,24,13,07,7.30
2009,03,24,13,08,7.40
2009,03,24,13,09,7.50
2009,03,24,13,10,7.60
2009,03,24,13,11,7.60
2009,03,24,13,12,7.70
2009,03,24,13,13,7.70
2009,03,24,13,14,7.70
2009,03,24,13,15,7.60
2009,03,24,13,16,7.60
2009,03,24,13,17,7.60
2009,03,24,13,18,7.60
2009,03,24,13,19,7.50
2009,03,24,13,20,7.50
2009,03,24,13,21,7.50
2009,03,24,13,22,7.40
2009,03,24,13,23,7.40
2009,03,24,13,24,7.40
2009,03,24,13,25,7.40
2009,03,24,13,26,7.40
2009,03,24,13,27,7.30
2009,03,24,13,28,7.30
2009,03,24,13,29,7.30
2009,03,24,13,30,7.30
2009,03,24,13,31,7.30
2009,03,24,13,32,7.30
2009,03,24,13,33,7.20
2009,03,24,13,34,7.20
2009,03,24,13,35,7.20
2009,03,24,13,36,7.20
2009,03,24,13,37,7.20
2009,03,24,13,38,7.20
2009,03,24,13,39,7.30
2009,03,24,13,40,7.30
2009,03,24,13,41,7.20
2009,03,24,13,42,7.20
2009,03,24,13,43,7.20
2009,03,24,13,44,7.20
2009,03,24,13,45,7.20
2009,03,24,13,46,7.30
2009,03,24,13,47,7.30
2009,03,24,13,48,7.20
2009,03,24,13,49,7.20
2009,03,24,13,50,7.20
2009,03,24,13,51,7.20
2009,03,24,13,52,7.30
2009,03,24,13,53,7.30
2009,03,24,13,54,7.30
2009,03,24,13,55,7.30
2009,03,24,13,56,7.40
2009,03,24,13,57,7.40
2009,03,24,13,58,7.40
2009,03,24,13,59,7.40
2009,03,24,14,00,7.40
2009,03,24,14,01,7.40
2009,03,24,14,02,7.40
2009,03,24,14,03,7.50
2009,03,24,14,04,7.50
2009,03,24,14,05,7.50
2009,03,24,14,06,7.60
2009,03,24,14,07,7.60
2009,03,24,14,08,7.60
2009,03,24,14,09,7.50
2009,03,24,14,10,7.50
2009,03,24,14,11,7.60
2009,03,24,14,12,7.60
2009,03,24,14,13,7.60
2009,03,24,14,14,7.70
2009,03,24,14,15,7.70
2009,03,24,14,16,7.70
2009,03,24,14,17,7.70
2009,03,24,14,18,7.80
2009,03,24,14,19,7.80
2009,03,24,14,20,7.80
2009,03,24,14,21,7.80
2009,03,24,14,22,7.80
2009,03,24,14,23,7.80
2009,03,24,14,24,7.80
2009,03,24,14,25,7.80
2009,03,24,14,26,7.80
2009,03,24,14,27,7.80
2009,03,24,14,28,7.80
2009,03,24,14,29,7.80
2009,03,24,14,30,7.80
2009,03,24,14,31,7.80
2009,03,24,14,32,7.80
2009,03,24,14,33,7.90
2009,03,24,14,34,7.90
2009,03,24,14,35,7.90
2009,03,24,14,36,7.90
2009,03,24,14,37,7.90
2009,03,24,14,38,7.90
2009,03,24,14,39,7.90
2009,03,24,14,40,7.90
2009,03,24,14,41,8.00
2009,03,24,14,42,8.00
2009,03,24,14,43,8.00
2009,03,24,14,44,8.00
2009,03,24,14,45,8.00
2009,03,24,14,46,8.10
2009,03,24,14,47,8.10
2009,03,24,14,48,8.10
2009,03,24,14,49,8.10
2009,03,24,14,50,8.10
2009,03,24,14,51,8.10
2009,03,24,14,52,8.10
2009,03,24,14,53,8.10
2009,03,24,14,54,8.10
2009,03,24,14,55,8.10
2009,03,24,14,56,8.10
2009,03,24,14,57,8.20
2009,03,24,14,58,8.10
2009,03,24,14,59,8.10
2009,03,24,15,00,8.20
2009,03,24,15,01,8.20
2009,03,24,15,02,8.20
2009,03,24,15,03,8.20
2009,03,24,15,04,8.20
2009,03,24,15,05,8.20
2009,03,24,15,06,8.20
2009,03,24,15,07,8.20
2009,03,24,15,08,8.20
2009,03,24,15,09,8.20
2009,03,24,15,10,8.20
2009,03,24,15,11,8.20
2009,03,24,15,12,8.20
2009,03,24,15,13,8.20
2009,03,24,15,14,8.20
2009,03,24,15,15,8.20
2009,03,24,15,16,8.20
2009,03,24,15,17,8.20
2009,03,24,15,18,8.20
2009,03,24,15,19,8.20
2009,03,24,15,20,8.20
2009,03,24,15,21,8.20
2009,03,24,15,22,8.20
2009,03,24,15,23,8.20
2009,03,24,15,24,8.20
2009,03,24,15,25,8.20
2009,03,24,15,26,8.20
2009,03,24,15,27,8.30
2009,03,24,15,28,8.30
2009,03,24,15,29,8.20
2009,03,24,15,30,8.20
2009,03,24,15,31,8.20
2009,03,24,15,32,8.20
2009,03,24,15,33,8.20
2009,03,24,15,34,8.20
2009,03,24,15,35,8.20
2009,03,24,15,36,8.20
2009,03,24,15,37,8.20
2009,03,24,15,38,8.20
2009,03,24,15,39,8.20
2009,03,24,15,40,8.20
2009,03,24,15,41,8.20
2009,03,24,15,42,8.20
2009,03,24,15,43,8.20
2009,03,24,15,44,8.30
2009,03,24,15,45,8.30
2009,03,24,15,46,8.30
2009,03,24,15,47,8.20
2009,03,24,15,48,8.20
2009,03,24,15,49,8.20
2009,03,24,15,50,8.20
2009,03,24,15,51,8.10
2009,03,24,15,52,8.10
2009,03,24,15,53,8.10
2009,03,24,15,54,8.10
2009,03,24,15,55,8.10
2009,03,24,15,56,8.00
2009,03,24,15,57,8.00
2009,03,24,15,58,8.00
2009,03,24,15,59,8.00
2009,03,24,16,00,8.00
2009,03,24,16,01,8.00
2009,03,24,16,02,8.00
2009,03,24,16,03,8.00
2009,03,24,16,04,8.00
2009,03,24,16,05,8.00
2009,03,24,16,06,7.90
2009,03,24,16,07,7.90
2009,03,24,16,08,7.90
2009,03,24,16,09,7.90
2009,03,24,16,10,7.90
2009,03,24,16,11,7.90
2009,03,24,16,12,7.90
2009,03,24,16,13,7.90
2009,03,24,16,14,7.90
2009,03,24,16,15,7.80
2009,03,24,16,16,7.80
2009,03,24,16,17,7.90
2009,03,24,16,18,7.90
2009,03,24,16,19,7.90
2009,03,24,16,20,7.80
2009,03,24,16,21,7.80
2009,03,24,16,22,7.70
2009,03,24,16,23,7.60
2009,03,24,16,24,7.60
2009,03,24,16,25,7.50
2009,03,24,16,26,7.50
2009,03,24,16,27,7.40
2009,03,24,16,28,7.30
2009,03,24,16,29,7.30
2009,03,24,16,30,7.20
2009,03,24,16,31,7.10
2009,03,24,16,32,7.00
2009,03,24,16,33,7.00
2009,03,24,16,34,6.90
2009,03,24,16,35,6.90
2009,03,24,16,36,6.90
2009,03,24,16,37,6.90
2009,03,24,16,38,6.80
2009,03,24,16,39,6.80
2009,03,24,16,40,6.80
2009,03,24,16,41,6.80
2009,03,24,16,42,6.80
2009,03,24,16,43,6.80
2009,03,24,16,44,6.70
2009,03,24,16,45,6.70
2009,03,24,16,46,6.70
2009,03,24,16,47,6.70
2009,03,24,16,48,6.70
2009,03,24,16,49,6.70
2009,03,24,16,50,6.80
2009,03,24,16,51,6.80
2009,03,24,16,52,6.80
2009,03,24,16,53,6.80
2009,03,24,16,54,6.80
2009,03,24,16,55,6.80
2009,03,24,16,56,6.80
2009,03,24,16,57,6.80
2009,03,24,16,58,6.90
2009,03,24,16,59,6.90
2009,03,24,17,00,6.90
2009,03,24,17,01,6.90
2009,03,24,17,02,6.90
2009,03,24,17,03,6.90
2009,03,24,17,04,6.90
2009,03,24,17,05,6.90
2009,03,24,17,06,6.90
2009,03,24,17,07,7.00
2009,03,24,17,08,7.00
2009,03,24,17,09,7.00
2009,03,24,17,10,7.00
2009,03,24,17,11,7.00
2009,03,24,17,12,7.00
2009,03,24,17,13,7.00
2009,03,24,17,14,7.00
2009,03,24,17,15,7.10
2009,03,24,17,16,7.10
2009,03,24,17,17,7.10
2009,03,24,17,18,7.10
2009,03,24,17,19,7.10
2009,03,24,17,20,7.10
2009,03,24,17,21,7.10
2009,03,24,17,22,7.10
2009,03,24,17,23,7.10
2009,03,24,17,24,7.10
2009,03,24,17,25,7.10
2009,03,24,17,26,7.10
2009,03,24,17,27,7.10
2009,03,24,17,28,7.00
2009,03,24,17,29,7.00
2009,03,24,17,30,7.00
2009,03,24,17,31,7.00
2009,03,24,17,32,7.00
2009,03,24,17,33,7.00
2009,03,24,17,34,7.00
2009,03,24,17,35,7.00
2009,03,24,17,36,7.00
2009,03,24,17,37,7.00
2009,03,24,17,38,7.00
2009,03,24,17,39,7.00
2009,03,24,17,40,7.00
2009,03,24,17,41,7.00
2009,03,24,17,42,7.00
2009,03,24,17,43,7.00
2009,03,24,17,44,6.90
2009,03,24,17,45,6.90
2009,03,24,17,46,6.90
2009,03,24,17,47,6.90
2009,03,24,17,48,6.90
2009,03,24,17,49,6.90
2009,03,24,17,50,6.90
2009,03,24,17,51,6.90
2009,03,24,17,52,6.80
2009,03,24,17,53,6.80
2009,03,24,17,54,6.80
2009,03,24,17,55,6.80
2009,03,24,17,56,6.80
2009,03,24,17,57,6.80
2009,03,24,17,58,6.80
2009,03,24,17,59,6.80
2009,03,24,18,00,6.80
2009,03,24,18,01,6.80
2009,03,24,18,02,6.80
2009,03,24,18,03,6.80
2009,03,24,18,04,6.80
2009,03,24,18,05,6.80
2009,03,24,18,06,6.80
2009,03,24,18,07,6.70
2009,03,24,18,08,6.70
2009,03,24,18,09,6.70
2009,03,24,18,10,6.70
2009,03,24,18,11,6.70
2009,03,24,18,12,6.70
2009,03,24,18,13,6.70
2009,03,24,18,14,6.70
2009,03,24,18,15,6.70
2009,03,24,18,16,6.70
2009,03,24,18,17,6.70
2009,03,24,18,18,6.60
2009,03,24,18,19,6.60
2009,03,24,18,20,6.60
2009,03,24,18,21,6.60
2009,03,24,18,22,6.60
2009,03,24,18,23,6.60
2009,03,24,18,24,6.60
2009,03,24,18,25,6.60
2009,03,24,18,26,6.60
2009,03,24,18,27,6.60
2009,03,24,18,28,6.60
2009,03,24,18,29,6.60
2009,03,24,18,30,6.60
2009,03,24,18,31,6.60
2009,03,24,18,32,6.60
2009,03,24,18,33,6.60
2009,03,24,18,34,6.60
2009,03,24,18,35,6.60
2009,03,24,18,36,6.60
2009,03,24,18,37,6.60
2009,03,24,18,38,6.60
2009,03,24,18,39,6.60
2009,03,24,18,40,6.60
2009,03,24,18,41,6.60
2009,03,24,18,42,6.60
2009,03,24,18,43,6.60
2009,03,24,18,44,6.60
2009,03,24,18,45,6.60
2009,03,24,18,46,6.60
2009,03,24,18,47,6.60
2009,03,24,18,48,6.60
2009,03,24,18,49,6.60
2009,03,24,18,50,6.60
2009,03,24,18,51,6.60
2009,03,24,18,52,6.50
2009,03,24,18,53,6.40
2009,03,24,18,54,6.40
2009,03,24,18,55,6.40
2009,03,24,18,56,6.40
2009,03,24,18,57,6.40
2009,03,24,18,58,6.40
2009,03,24,18,59,6.40
2009,03,24,19,00,6.40
2009,03,24,19,01,6.40
2009,03,24,19,02,6.30
2009,03,24,19,03,6.30
2009,03,24,19,04,6.20
2009,03,24,19,05,6.20
2009,03,24,19,06,6.20
2009,03,24,19,07,6.20
2009,03,24,19,08,6.20
2009,03,24,19,09,6.10
2009,03,24,19,10,6.10
2009,03,24,19,11,6.00
2009,03,24,19,12,6.00
2009,03,24,19,13,6.00
2009,03,24,19,14,5.90
2009,03,24,19,15,5.90
2009,03,24,19,16,5.90
2009,03,24,19,17,5.90
2009,03,24,19,18,5.90
2009,03,24,19,19,5.90
2009,03,24,19,20,5.90
2009,03,24,19,21,5.90
2009,03,24,19,22,5.90
2009,03,24,19,23,5.80
2009,03,24,19,24,5.80
2009,03,24,19,25,5.80
2009,03,24,19,26,5.80
2009,03,24,19,27,5.80
2009,03,24,19,28,5.80
2009,03,24,19,29,5.80
2009,03,24,19,30,5.80
2009,03,24,19,31,5.70
2009,03,24,19,32,5.70
2009,03,24,19,33,5.70
2009,03,24,19,34,5.70
2009,03,24,19,35,5.70
2009,03,24,19,36,5.70
2009,03,24,19,37,5.70
2009,03,24,19,38,5.70
2009,03,24,19,39,5.70
2009,03,24,19,40,5.60
2009,03,24,19,41,5.60
2009,03,24,19,42,5.50
2009,03,24,19,43,5.50
2009,03,24,19,44,5.50
2009,03,24,19,45,5.50
2009,03,24,19,46,5.50
2009,03,24,19,47,5.50
2009,03,24,19,48,5.50
2009,03,24,19,49,5.40
2009,03,24,19,50,5.40
2009,03,24,19,51,5.40
2009,03,24,19,52,5.40
2009,03,24,19,53,5.40
2009,03,24,19,54,5.40
2009,03,24,19,55,5.50
2009,03,24,19,56,5.50
2009,03,24,19,57,5.50
2009,03,24,19,58,5.50
2009,03,24,19,59,5.50
2009,03,24,20,00,5.50
2009,03,24,20,01,5.50
2009,03,24,20,02,5.50
2009,03,24,20,03,5.50
2009,03,24,20,04,5.50
2009,03,24,20,05,5.60
2009,03,24,20,06,5.60
2009,03,24,20,07,5.60
2009,03,24,20,08,5.60
2009,03,24,20,09,5.60
2009,03,24,20,10,5.60
2009,03,24,20,11,5.60
2009,03,24,20,12,5.60
2009,03,24,20,13,5.60
2009,03,24,20,14,5.60
2009,03,24,20,15,5.60
2009,03,24,20,16,5.60
2009,03,24,20,17,5.60
2009,03,24,20,18,5.60
2009,03,24,20,19,5.60
2009,03,24,20,20,5.70
2009,03,24,20,21,5.70
2009,03,24,20,22,5.70
2009,03,24,20,23,5.70
2009,03,24,20,24,5.70
2009,03,24,20,25,5.70
2009,03,24,20,26,5.70
2009,03,24,20,27,5.70
2009,03,24,20,28,5.70
2009,03,24,20,29,5.70
2009,03,24,20,30,5.70
2009,03,24,20,31,5.70
2009,03,24,20,32,5.70
2009,03,24,20,33,5.70
2009,03,24,20,34,5.70
2009,03,24,20,35,5.70
2009,03,24,20,36,5.70
2009,03,24,20,37,5.70
2009,03,24,20,38,5.70
2009,03,24,20,39,5.70
2009,03,24,20,40,5.70
2009,03,24,20,41,5.70
2009,03,24,20,42,5.70
2009,03,24,20,43,5.70
2009,03,24,20,44,5.70
2009,03,24,20,45,5.70
2009,03,24,20,46,5.70
2009,03,24,20,47,5.70
2009,03,24,20,48,5.70
2009,03,24,20,49,5.70
2009,03,24,20,50,5.70
2009,03,24,20,51,5.60
2009,03,24,20,52,5.60
2009,03,24,20,53,5.60
2009,03,24,20,54,5.60
2009,03,24,20,55,5.60
2009,03,24,20,56,5.60
2009,03,24,20,57,5.60
2009,03,24,20,58,5.60
2009,03,24,20,59,5.60
2009,03,24,21,00,5.60
2009,03,24,21,01,5.60
2009,03,24,21,02,5.60
2009,03,24,21,03,5.60
2009,03,24,21,04,5.60
2009,03,24,21,05,5.60
2009,03,24,21,06,5.60
2009,03,24,21,07,5.60
2009,03,24,21,08,5.60
2009,03,24,21,09,5.60
2009,03,24,21,10,5.60
2009,03,24,21,11,5.60
2009,03,24,21,12,5.60
2009,03,24,21,13,5.60
2009,03,24,21,14,5.60
2009,03,24,21,15,5.60
2009,03,24,21,16,5.60
2009,03,24,21,17,5.60
2009,03,24,21,18,5.60
2009,03,24,21,19,5.60
2009,03,24,21,20,5.70
2009,03,24,21,21,5.70
2009,03,24,21,22,5.70
2009,03,24,21,23,5.70
2009,03,24,21,24,5.70
2009,03,24,21,25,5.70
2009,03,24,21,26,5.70
2009,03,24,21,27,5.70
2009,03,24,21,28,5.70
2009,03,24,21,29,5.70
2009,03,24,21,30,5.70
2009,03,24,21,31,5.70
2009,03,24,21,32,5.70
2009,03,24,21,33,5.70
2009,03,24,21,34,5.70
2009,03,24,21,35,5.70
2009,03,24,21,36,5.60
2009,03,24,21,37,5.60
2009,03,24,21,38,5.60
2009,03,24,21,39,5.60
2009,03,24,21,40,5.70
2009,03,24,21,41,5.70
2009,03,24,21,42,5.70
2009,03,24,21,43,5.70
2009,03,24,21,44,5.70
2009,03,24,21,45,5.60
2009,03,24,21,46,5.60
2009,03,24,21,47,5.60
2009,03,24,21,48,5.60
2009,03,24,21,49,5.60
2009,03,24,21,50,5.60
2009,03,24,21,51,5.50
2009,03,24,21,52,5.50
2009,03,24,21,53,5.50
2009,03,24,21,54,5.50
2009,03,24,21,55,5.40
2009,03,24,21,56,5.40
2009,03,24,21,57,5.40
2009,03,24,21,58,5.40
2009,03,24,21,59,5.30
2009,03,24,22,00,5.30
2009,03,24,22,01,5.30
2009,03,24,22,02,5.30
2009,03,24,22,03,5.30
2009,03,24,22,04,5.30
2009,03,24,22,05,5.30
2009,03,24,22,06,5.30
2009,03,24,22,07,5.30
2009,03,24,22,08,5.30
2009,03,24,22,09,5.30
2009,03,24,22,10,5.30
2009,03,24,22,11,5.30
2009,03,24,22,12,5.30
2009,03,24,22,13,5.30
2009,03,24,22,14,5.30
2009,03,24,22,15,5.30
2009,03,24,22,16,5.30
2009,03,24,22,17,5.30
2009,03,24,22,18,5.30
2009,03,24,22,19,5.30
2009,03,24,22,20,5.30
2009,03,24,22,21,5.30
2009,03,24,22,22,5.30
2009,03,24,22,23,5.30
2009,03,24,22,24,5.30
2009,03,24,22,25,5.30
2009,03,24,22,26,5.30
2009,03,24,22,27,5.20
2009,03,24,22,28,5.20
2009,03,24,22,29,5.20
2009,03,24,22,30,5.10
2009,03,24,22,31,5.10
2009,03,24,22,32,5.10
2009,03,24,22,33,5.10
2009,03,24,22,34,5.10
2009,03,24,22,35,5.10
2009,03,24,22,36,5.10
2009,03,24,22,37,5.10
2009,03,24,22,38,5.10
2009,03,24,22,39,5.10
2009,03,24,22,40,5.10
2009,03,24,22,41,5.10
2009,03,24,22,42,5.00
2009,03,24,22,43,4.90
2009,03,24,22,44,4.90
2009,03,24,22,45,4.90
2009,03,24,22,46,4.90
2009,03,24,22,47,4.90
2009,03,24,22,48,4.90
2009,03,24,22,49,4.90
2009,03,24,22,50,4.90
2009,03,24,22,51,5.10
2009,03,24,22,52,5.10
2009,03,24,22,53,5.10
2009,03,24,22,54,5.10
2009,03,24,22,55,5.10
2009,03,24,22,56,5.10
2009,03,24,22,57,5.10
2009,03,24,22,58,5.10
2009,03,24,22,59,5.10
2009,03,24,23,00,5.10
2009,03,24,23,01,5.10
2009,03,24,23,02,5.10
2009,03,24,23,03,5.10
2009,03,24,23,04,5.10
2009,03,24,23,05,5.10
2009,03,24,23,06,5.10
2009,03,24,23,07,5.10
2009,03,24,23,08,5.10
2009,03,24,23,09,5.10
2009,03,24,23,10,5.10
2009,03,24,23,11,5.10
2009,03,24,23,12,5.10
2009,03,24,23,13,5.10
2009,03,24,23,14,5.10
2009,03,24,23,15,5.00
2009,03,24,23,16,5.10
2009,03,24,23,17,5.10
2009,03,24,23,18,5.10
2009,03,24,23,19,4.90
2009,03,24,23,20,4.90
2009,03,24,23,21,4.90
2009,03,24,23,22,4.90
2009,03,24,23,23,4.90
2009,03,24,23,24,4.90
2009,03,24,23,25,4.90
2009,03,24,23,26,4.90
2009,03,24,23,27,4.90
2009,03,24,23,28,4.90
2009,03,24,23,29,4.90
2009,03,24,23,30,4.90
2009,03,24,23,31,4.90
2009,03,24,23,32,4.90
2009,03,24,23,33,4.90
2009,03,24,23,34,4.90
2009,03,24,23,35,4.90
2009,03,24,23,36,4.90
2009,03,24,23,37,4.90
2009,03,24,23,38,4.90
2009,03,24,23,39,4.90
2009,03,24,23,40,4.90
2009,03,24,23,41,4.90
2009,03,24,23,42,4.90
2009,03,24,23,43,4.90
2009,03,24,23,44,4.90
2009,03,24,23,45,4.90
2009,03,24,23,46,4.80
2009,03,24,23,47,4.80
2009,03,24,23,48,4.80
2009,03,24,23,49,4.80
2009,03,24,23,50,4.70
2009,03,24,23,51,4.70
2009,03,24,23,52,4.70
2009,03,24,23,53,4.70
2009,03,24,23,54,4.70
2009,03,24,23,55,4.70
2009,03,24,23,56,4.60
2009,03,24,23,57,4.60
2009,03,24,23,58,4.60
2009,03,24,23,59,4.60
